Torna al catalogo

STARLINK-34735

AttivoComunicazioniSSO
NORAD 65072·PAYLOAD·🇺🇸 United States

Lanciato Jul 31, 2025 da Vandenberg Space Force Base

Loading…

Prossimi Passaggi (prossime 24 ore)

TLE

AggiornatoSource: CelesTrak SupGP

Epoca: Sep 15, 2026, 03:28 UTC

1 65072C 25165S   26258.14493056  .02195600  00000+0  10991+0 0  2583
2 65072  97.2846 329.4251 0001810  85.2910 269.3573 15.16375522    12

Traccia STARLINK-34735 in tempo reale con AllMySat

Download on the App Store